Back to catalog

SUNSAT

AliveAmateur RadioPO
NORAD 25636·PAYLOAD·🇿🇦 South Africa

Launched Feb 23, 1999 from Vandenberg Space Force Base

Loading…

Next Passes (next 24 hours)

TLE

FreshSource: Space-Track

Epoch: Sep 14, 2026, 08:36 UTC

1 25636U 99008C   26257.35851334  .00000137  00000-0  40953-4 0  9998
2 25636  96.4559 113.0963 0142961  44.9336 316.3327 14.46501786452128

Track SUNSAT in real time with AllMySat

Download on the App Store